Abidjan, Ivory Coast

4:04 AM GMT on May 29, 2017 (GMT +0000)
Abidjan

Weather History for DIAP - February, 2013

Change the Weather History Date:

Thursday, February 21, 2013

  Actual Average Record
Temperature  
Mean Temperature 84 °F -  
Max Temperature 91 °F 88 °F 91 °F (2001)
Min Temperature 77 °F 77 °F 35 °F (2005)
Cooling Degree Days 19    
Growing Degree Days 34 (Base 50)    
Moisture  
Dew Point 78 °F    
Average Humidity 83    
Maximum Humidity 100    
Minimum Humidity 52    
Precipitation  
Precipitation 0.00 in 0.12 in - ()
Sea Level Pressure  
Sea Level Pressure 29.82 in    
Wind  
Wind Speed 5 mph ()    
Max Wind Speed 13 mph    
Max Gust Speed -    
Visibility 5.7 miles    
Events Fog    
Averages and records for this station are not official NWS values.
T = Trace of Precipitation, MM = Missing Value Source: Averaged Metar Reports

Daily Weather History Graph

Daily Weather History Graph

Search for Another Location

Airport or City:

Trip Planner

Search our weather history database for the weather conditions in past years. The results will help you decide how hot, cold, wet, or windy it might be!

Date:

Astronomy

Feb. 21, 2013 Rise Set
Actual Time 6:29 AM GMT 6:28 PM GMT
Civil Twilight 6:08 AM GMT 6:49 PM GMT
Nautical Twilight 5:44 AM GMT 7:14 PM GMT
Astronomical Twilight 5:19 AM GMT 7:38 PM GMT
Moon 3:01 PM GMT (2/21) 2:51 AM GMT (2/21)
Length of Visible Light 12h 41m
Length of Day
11h 59m
Waxing Gibbous, 82% of the Moon is Illuminated
Feb 21
Waxing Gibbous
Feb 25
Full
Mar 4
Last Quarter
Mar 11
New
Mar 19
First Quarter

Hourly Weather History & Observations

Time (GMT) Temp. Heat Index Dew Point Humidity Pressure Visibility Wind Dir Wind Speed Gust Speed Precip Events Conditions
12:00 AM 81 °F - 78 °F 88% 29.83 in 5 mi SSW 4.6 mph - -   Partly Cloudy
12:00 AM 80.6 °F 88.1 °F 78.8 °F 94% 29.86 in 6.2 mi SSW 5.8 mph - N/A   Scattered Clouds
12:30 AM 80.6 °F 88.1 °F 78.8 °F 94% 29.83 in 6.2 mi SSW 5.8 mph - N/A   Scattered Clouds
1:00 AM 82.4 °F 92.4 °F 78.8 °F 89% 29.83 in 6.2 mi SW 3.5 mph - N/A   Scattered Clouds
1:30 AM 80.6 °F 88.1 °F 78.8 °F 94% 29.83 in 6.2 mi SW 3.5 mph - N/A   Scattered Clouds
2:00 AM 80.6 °F 88.1 °F 78.8 °F 94% 29.80 in 6.2 mi Variable 2.3 mph - N/A   Scattered Clouds
2:30 AM 80.6 °F 88.1 °F 78.8 °F 94% 29.80 in 6.2 mi SSW 5.8 mph - N/A   Scattered Clouds
3:00 AM 80 °F - 78 °F 90% 29.79 in 5 mi South 4.6 mph - -   Partly Cloudy
3:00 AM 80.6 °F 88.1 °F 78.8 °F 94% 29.80 in 6.2 mi South 3.5 mph - N/A   Scattered Clouds
3:30 AM 80.6 °F 88.1 °F 78.8 °F 94% 29.80 in 6.2 mi South 3.5 mph - N/A   Scattered Clouds
4:00 AM 78.8 °F - 78.8 °F 100% 29.80 in 6.2 mi SW 3.5 mph - N/A   Scattered Clouds
4:30 AM 78.8 °F - 78.8 °F 100% 29.80 in 6.2 mi Variable 1.2 mph - N/A   Scattered Clouds
5:00 AM 78.8 °F - 78.8 °F 100% 29.80 in 6.2 mi Calm Calm - N/A   Scattered Clouds
5:30 AM 78.8 °F - 77.0 °F 94% 29.80 in 6.2 mi Variable 1.2 mph - N/A   Scattered Clouds
6:00 AM 78 °F - 78 °F 98% 29.82 in 0 mi West 2.3 mph - - Fog Partial Fog
6:00 AM 78.8 °F - 77.0 °F 94% 29.83 in 6.2 mi Variable 1.2 mph - N/A   Scattered Clouds
6:19 AM 78.8 °F - 77.0 °F 94% 29.83 in 3.7 mi West 1.2 mph - N/A   Scattered Clouds
6:30 AM 78.8 °F - 77.0 °F 94% 29.83 in 4.3 mi West 1.2 mph - N/A   Scattered Clouds
6:37 AM 77.0 °F - 77.0 °F 100% 29.83 in 2.5 mi Variable 2.3 mph - N/A   Scattered Clouds
6:54 AM 77.0 °F - 77.0 °F 100% 29.83 in 5.0 mi Variable 1.2 mph - N/A   Partly Cloudy
7:00 AM 77.0 °F - 77.0 °F 100% 29.83 in 5.0 mi Variable 1.2 mph - N/A   Partly Cloudy
7:30 AM 78.8 °F - 78.8 °F 100% 29.83 in 4.3 mi Variable 2.3 mph - N/A   Partly Cloudy
8:00 AM 82.4 °F 92.4 °F 78.8 °F 89% 29.86 in 4.3 mi Variable 2.3 mph - N/A   Scattered Clouds
8:30 AM 84.2 °F 96.1 °F 78.8 °F 84% 29.86 in 5.0 mi West 3.5 mph - N/A   Scattered Clouds
9:00 AM 84 °F - 77 °F 75% 29.88 in 4 mi West 2.3 mph - -   Partly Cloudy
9:00 AM 84.2 °F 94.1 °F 77.0 °F 79% 29.89 in 5.0 mi Variable 2.3 mph - N/A   Scattered Clouds
9:30 AM 86.0 °F 95.1 °F 75.2 °F 70% 29.89 in 5.0 mi West 4.6 mph - N/A   Scattered Clouds
10:00 AM 87.8 °F 97.6 °F 75.2 °F 66% 29.89 in 6.2 mi SSW 8.1 mph - N/A   Scattered Clouds
10:30 AM 87.8 °F 97.6 °F 75.2 °F 66% 29.89 in 6.2 mi SW 8.1 mph - N/A   Scattered Clouds
11:00 AM 89.6 °F 99.8 °F 75.2 °F 62% 29.89 in 6.2 mi SSW 6.9 mph - N/A   Scattered Clouds
11:30 AM 89.6 °F 98.2 °F 73.4 °F 59% 29.89 in 6.2 mi SW 9.2 mph - N/A   Scattered Clouds
12:00 PM 90 °F - 74 °F 52% 29.86 in 5 mi SSW 6.9 mph - -   Partly Cloudy
12:00 PM 89.6 °F 99.8 °F 75.2 °F 62% 29.86 in 6.2 mi SSW 9.2 mph - N/A   Scattered Clouds
12:30 PM 89.6 °F 99.8 °F 75.2 °F 62% 29.86 in 6.2 mi SSW 10.4 mph - N/A   Scattered Clouds
1:00 PM 89.6 °F 102.2 °F 77.0 °F 66% 29.83 in 6.2 mi SW 10.4 mph - N/A   Scattered Clouds
1:30 PM 89.6 °F 99.8 °F 75.2 °F 62% 29.80 in 6.2 mi South 10.4 mph - N/A   Scattered Clouds
2:00 PM 89.6 °F 99.8 °F 75.2 °F 62% 29.80 in 6.2 mi SSW 11.5 mph - N/A   Partly Cloudy
2:30 PM 89.6 °F 99.8 °F 75.2 °F 62% 29.80 in 6.2 mi SSW 11.5 mph - N/A   Partly Cloudy
3:00 PM 89.6 °F 102.2 °F 77.0 °F 66% 29.77 in 6.2 mi SSW 10.4 mph - N/A   Partly Cloudy
3:30 PM 87.8 °F 99.7 °F 77.0 °F 70% 29.77 in 6.2 mi SSW 11.5 mph - N/A   Partly Cloudy
4:00 PM 87.8 °F 102.5 °F 78.8 °F 75% 29.74 in 6.2 mi SSW 12.7 mph - N/A   Partly Cloudy
4:30 PM 87.8 °F 102.5 °F 78.8 °F 75% 29.74 in 6.2 mi South 10.4 mph - N/A   Partly Cloudy
5:00 PM 87.8 °F 99.7 °F 77.0 °F 70% 29.74 in 6.2 mi SSW 9.2 mph - N/A   Mostly Cloudy
5:30 PM 86.0 °F 96.9 °F 77.0 °F 74% 29.74 in 6.2 mi SSW 8.1 mph - N/A   Mostly Cloudy
6:00 PM 85 °F - 78 °F 76% 29.74 in 6 mi SSW 6.9 mph - -   Scattered Clouds
6:00 PM 84.2 °F 94.1 °F 77.0 °F 79% 29.74 in 6.2 mi SSW 8.1 mph - N/A   Mostly Cloudy
6:30 PM 84.2 °F 94.1 °F 77.0 °F 79% 29.74 in 6.2 mi SSW 8.1 mph - N/A   Mostly Cloudy
7:00 PM 84.2 °F 96.1 °F 78.8 °F 84% 29.77 in 6.2 mi SSW 6.9 mph - N/A   Mostly Cloudy
7:30 PM 84.2 °F 96.1 °F 78.8 °F 84% 29.77 in 6.2 mi SSW 6.9 mph - N/A   Partly Cloudy
8:00 PM 82.4 °F 92.4 °F 78.8 °F 89% 29.80 in 6.2 mi SSW 6.9 mph - N/A   Partly Cloudy
8:30 PM 82.4 °F 92.4 °F 78.8 °F 89% 29.80 in 6.2 mi SSW 5.8 mph - N/A   Partly Cloudy
9:00 PM 83 °F - 79 °F 84% 29.81 in 6 mi SSW 6.9 mph - -   Scattered Clouds
9:00 PM 82.4 °F 92.4 °F 78.8 °F 89% 29.80 in 6.2 mi SSW 5.8 mph - N/A   Partly Cloudy
9:30 PM 82.4 °F 92.4 °F 78.8 °F 89% 29.80 in 6.2 mi SSW 5.8 mph - N/A   Partly Cloudy
10:00 PM 82.4 °F 92.4 °F 78.8 °F 89% 29.83 in 6.2 mi South 5.8 mph - N/A   Partly Cloudy
10:30 PM 82.4 °F 92.4 °F 78.8 °F 89% 29.83 in 6.2 mi South 5.8 mph - N/A   Mostly Cloudy
11:00 PM 82.4 °F 92.4 °F 78.8 °F 89% 29.83 in 6.2 mi South 4.6 mph - N/A   Mostly Cloudy
11:30 PM 82.4 °F 92.4 °F 78.8 °F 89% 29.83 in 6.2 mi Variable 1.2 mph - N/A   Mostly Cloudy